This is the latest recevied weather packets stored in our database for station/object KE8AFF-13. If no packets are shown the sender has not sent any weather packets the latest 10 day(s).
| Time | Temp. | Humidity | Pressure | Rain* | Wind** | Luminosity | Snow |
|---|---|---|---|---|---|---|---|
| 1777905329 | 15.56° C | 65% | 1008.2 hPa | 0 mm | - | 701 W/m² | - |
| 1777905027 | 15.56° C | 66% | 1008 hPa | 0 mm | - | 687 W/m² | - |
| 1777904724 | 15° C | 66% | 1008.1 hPa | 0 mm | - | 650 W/m² | - |
| 1777904421 | 15° C | 66% | 1008.3 hPa | 0 mm | - | 640 W/m² | - |
| 1777904117 | 15° C | 67% | 1008.3 hPa | 0 mm | - | 629 W/m² | - |
| 1777903814 | 15° C | 66% | 1008.3 hPa | 0 mm | - | 625 W/m² | - |
| 1777903511 | 14.44° C | 67% | 1008.4 hPa | 0 mm | - | 593 W/m² | - |
| 1777903208 | 14.44° C | 67% | 1008.7 hPa | 0 mm | - | 581 W/m² | - |
| 1777902904 | 14.44° C | 67% | 1008.6 hPa | 0 mm | - | 593 W/m² | - |
| 1777902601 | 13.89° C | 67% | 1008.6 hPa | 0 mm | - | 582 W/m² | - |
| 1777902298 | 13.89° C | 67% | 1008.6 hPa | 0 mm | - | 551 W/m² | - |
| 1777901995 | 13.89° C | 67% | 1008.7 hPa | 0 mm | - | 523 W/m² | - |
| 1777901694 | 13.33° C | 68% | 1008.7 hPa | 0 mm | - | 468 W/m² | - |
| 1777901390 | 13.33° C | 68% | 1008.9 hPa | 0 mm | - | 440 W/m² | - |
| 1777901088 | 13.33° C | 69% | 1008.7 hPa | 0 mm | - | 436 W/m² | - |
| 1777900785 | 12.78° C | 69% | 1008.9 hPa | 0 mm | - | 393 W/m² | - |
| 1777900482 | 12.78° C | 70% | 1009 hPa | 0 mm | - | 374 W/m² | - |
| 1777900173 | 12.78° C | 70% | 1009 hPa | 0 mm | - | 343 W/m² | - |
| 1777899870 | 12.22° C | 70% | 1009 hPa | 0 mm | - | 335 W/m² | - |
| 1777899566 | 12.22° C | 70% | 1009 hPa | 0 mm | - | 318 W/m² | - |
| 1777899264 | 11.67° C | 71% | 1009 hPa | 0 mm | - | 280 W/m² | - |
| 1777898961 | 11.67° C | 71% | 1009.2 hPa | 0 mm | - | 298 W/m² | - |
| 1777898658 | 11.67° C | 72% | 1009.1 hPa | 0 mm | - | 152 W/m² | - |
| 1777898355 | 11.67° C | 72% | 1009.2 hPa | 0 mm | - | 252 W/m² | - |
| 1777898053 | 11.11° C | 73% | 1009.1 hPa | 0 mm | - | 249 W/m² | - |
* Rain latest hour (hover to see other rain measurements)
** Current wind speed in m/s (hover to see current wind gust speed)